Location: Unspecified
(0.0000°N, 0.0000°E)
Time: 06:26:36
(UTC+00:00)

TIANHUI 5D - Pass Details

Date: 17 August 2024
Orbit: 603 x 606 km, 97.8° (Epoch: 07 September)

Event Time Altitude Azimuth Distance (km) Brightness Sun altitude
Rises 05:06:21 0° 40° (NE) 2,841 ? -14.0°
Reaches altitude 10° 05:09:08 10° 60° (ENE) 1,941 ? -13.4°
Maximum altitude 05:11:56 17° 102° (ESE) 1,519 ? -12.7°
Drops below altitude 10° 05:14:45 10° 144° (SE) 1,948 ? -12.0°
Sets 05:17:32 0° 163° (SSE) 2,854 ? -11.3°
